Location: Barcelona
(41.3830°N, 2.1830°E)
Time: 12:21:14
(UTC+01:00)

ISS - Pass Details

Date: 19 March 2019
Orbit: 408 x 411 km, 51.6° (Epoch: 24 March)

Event Time Altitude Azimuth Distance (km) Brightness Sun altitude
Rises 20:27:35 0° 199° (SSW) 2,319 0.1 -16.7°
Reaches altitude 10° 20:30:02 10° 181° (S) 1,463 -1.2 -17.2°
Enters shadow 20:30:05 10° 180° (S) 1,449 -1.2 -17.2°
